SCP
0 0 0 0 0 0 0 0 0 0 0 0 0 0 0 0 0 0 0 0 0 0 0 0 0 0 0 0 0 0 -0 -0 -0 0 0 0 0 0 0 0 0 0 0 0 0 0 0 0 0 -0 -0 -0 -0 -0
0 0 0 0 0 0 0 0 0 0 0 0 0 0 0 0 0 0 0 0 0 0 0 0 0 0 0 0 0 0 0 0 -0 -0 -0 0 0 0 0 0 0 0 0 0 0 0 0 -0 0 0 0 0 0 0
0 0 0 0 0 0 0 0 0 0 0 0 0 0 0 0 0 0 0 0 0 0 0 0 0 0 0 0 0 0 0 0 0 0 0 0 0 0 0 0 0 0 0 0 0 0 0 0 0 0 0 0 0 0
0 0 0 0 0 0 0 0 0 0 0 0 0 0 0 0 0 0 0 0 0 0 0 0 0 0 0 0 0 0 -0 0 0 0 0 0 0 0 0 0 0 0 0 0 0 0 0 0 0 0 0 0 0 0
0 0 0 0 0 0 0 0 0 0 0 0 0 0 0 0 0 0 0 0 0 0 0 0 0 0 0 0 0 0 0 0 0 0 0 0 0 0 0 0 0 0 0 0 0 0 0 0 0 0 0 0 0 0
0 0 0 0 0 0 0 0 0 0 0 0 0 0 0 0 0 0 0 0 0 0 0 0 0 0 0 0 0 0 0 0 0 0 0 0 0 0 0 0 0 0 0 0 0 0 0 0 0 0 0 0 0 0
0 0 0 0 0 0 0 0 0 0 0 0 0 0 0 0 0 0 0 0 0 0 0 0 0 0 0 0 0 0 -0 0 0 0 0 0 0 0 0 0 0 0 0 0 0 0 0 0 0 0 0 0 0 0
0 0 0 0 0 0 0 0 0 0 0 0 0 0 0 -0 0 0 0 0 0 0 0 0 0 0 0 0 0 0 0 0 0 0 0 0 0 0 0 0 0 0 0 0 0 0 0 0 0 0 0 0 0 0
0 0 0 0 0 0 0 0 0 0 0 0 0 0 0 0 0 0 -0 -0 -0 0 0 0 0 0 0 0 0 0 0 0 0 0 0 0 0 0 0 0 0 0 0 0 0 0 0 0 0 0 0 0 0 0
0 0 0 0 0 0 0 0 0 0 0 0 0 0 0 0 0 -0 -0 0 0 0 0 0 0 0 0 0 0 0 0 0 -0 -0 0 0 0 0 0 0 0 0 0 0 0 0 0 0 0 0 0 0 0 0
0 0 0 0 0 0 0 0 0 0 0 0 0 0 0 0 0 0 0 0 0 0 0 0 0 0 0 0 0 0 0 0 0 0 0 0 0 0 0 0 0 0 0 0 0 0 -0 0 0 0 0 0 0 0
0 0 0 0 0 0 0 0 0 0 0 0 0 0 0 0 0 0 0 0 0 0 0 0 0 0 0 0 0 0 0 0 0 0 0 0 0 0 0 0 0 0 -0 -0 -0 0 0 0 0 0 0 0 0 0
0 0 0 0 0 0 0 0 0 0 0 0 0 0 0 0 0 0 0 0 0 0 0 0 0 0 0 0 0 0 0 0 0 0 0 0 0 0 0 0 0 -0 -0 -0 -0 -0 0 0 0 0 0 0 0 0
0 0 0 0 0 0 0 0 0 0 0 0 0 0 0 0 0 0 0 0 0 0 0 0 0 0 0 0 0 0 0 0 0 0 0 0 -0 0 0 0 -0 0 -0 -0 -0 -0 -0 0 0 0 0 0 0 0
0 0 0 0 0 0 0 0 0 0 0 0 0 0 0 0 0 0 0 0 0 0 0 0 0 0 0 0 0 0 0 0 0 0 0 0 0 0 0 -0 -0 -0 -0 -0 0 0 0 0 0 0 0 0 0 0
0 0 0 0 0 0 0 0 0 0 0 0 0 0 0 0 0 0 0 0 -0 0 0 0 0 0 0 0 0 0 0 0 0 0 0 0 0 0 -0 -0 -0 -0 -0 0 0 0 0 0 0 0 0 0 0 0
0 0 0 0 0 0 0 0 0 0 0 0 0 0 0 0 0 0 0 0 -0 -0 0 0 0 0 0 0 0 0 0 0 0 0 0 0 0 0 -0 -0 -0 0 0 0 0 0 0 0 0 0 0 0 0 0
0 0 0 0 0 0 0 0 0 0 0 0 0 0 0 0 0 0 0 -0 0 -0 -0 0 0 0 0 0 0 0 0 0 0 0 0 -0 0 -0 -0 -0 0 0 0 0 0 0 0 0 0 0 0 0 0 0
0 0 0 0 0 0 0 0 0 0 0 0 0 0 0 0 0 0 0 -0 -0 0 0 0 0 0 0 0 0 0 0 0 0 0 0 0 0 0 0 0 0 0 0 0 0 0 0 0 0 0 0 0 0 0
0 0 0 0 0 0 0 0 0 0 0 0 0 0 0 0 0 0 -0 -0 -0 -0 0 0 0 0 0 0 0 0 0 0 0 0 0 0 0 0 0 0 0 0 0 0 0 0 0 0 0 0 0 0 0 0
0 0 0 0 0 0 0 0 0 0 0 0 0 0 0 0 0 0 -0 0 -0 0 0 0 0 0 0 0 0 0 0 0 0 0 0 0 0 0 0 0 0 0 0 0 0 0 0 0 0 0 0 0 0 0
0 0 0 0 0 0 0 0 0 0 0 0 0 -0 -0 0 -0 -0 -0 -0 0 0 0 0 0 0 0 0 0 0 0 0 0 0 0 0 0 0 0 0 0 0 0 0 0 0 0 0 0 0 0 0 0 0
0 0 0 0 0 0 0 0 0 0 0 -0 -0 0 0 0 -0 0 -0 0 -0 0 0 -0 0 0 0 0 0 0 0 0 0 0 0 0 0 0 0 0 0 0 0 0 0 0 0 0 0 0 0 0 0 0
0 0 0 0 0 0 0 0 0 0 -0 -0 0 0 0 -0 0 0 -0 0 -0 -0 0 0 0 0 0 0 0 0 0 0 0 0 0 0 0 0 0 0 0 0 0 -0 0 0 0 0 0 0 0 0 0 0
0 0 0 0 0 0 0 0 0 0 -0 -0 0 0 0 0 -0 -0 0 -0 -0 -0 0 0 0 0 0 0 0 0 0 0 0 0 0 0 0 0 0 0 0 -0 0 0 0 0 0 0 0 0 0 0 0 0
0 0 0 0 0 0 0 0 0 -0 -0 0 0 0 0 0 0 0 0 -0 -0 -0 0 0 0 0 0 0 0 0 0 0 0 0 0 0 0 0 0 0 0 0 0 0 0 0 0 0 -0 -0 -0 -0 -0 0
0 0 0 0 0 -0 -0 -0 -0 0 0 0 0 0 0 -0 0 0 -0 -0 0 0 0 0 0 0 0 0 0 0 0 0 0 0 0 0 0 0 0 0 0 0 0 0 -0 -0 -0 -0 -0 -0 -0 0 -0 -0
-0 0 0 0 0 0 0 -0 -0 0 0 0 0 0 0 0 0 -0 0 0 0 0 0 0 0 0 0 0 0 0 0 0 0 0 0 0 0 0 0 0 0 -0 -0 -0 -0 -0 -0 -0 -0 -0 -0 -0 -0 0
-0 0 0 0 0 0 0 0 0 0 0 0 0 0 0 -0 0 0 0 0 0 0 0 0 0 0 0 0 0 0 0 0 0 0 0 0 0 0 0 -0 -0 -0 -0 -0 -0 0 0 0 0 -0 0 0 0 0
0 0 -0 0 0 0 0 0 0 0 0 0 0 0 0 0 0 0 0 0 0 0 0 0 0 0 0 0 0 0 0 0 0 0 0 0 -0 -0 -0 -0 0 -0 0 0 0 0 0 0 0 0 0 0 0 0
0 0 0 0 0 0 0 0 0 0 0 0 0 0 0 0 0 0 0 0 0 0 0 0 0 0 0 0 0 0 0 0 0 -0 -0 -0 -0 -0 0 0 0 0 0 0 0 0 0 0 0 0 0 0 0 0
0 0 0 0 0 0 0 0 0 0 0 0 0 0 0 0 0 0 -0 0 -0 0 0 0 0 0 0 0 -0 -0 0 -0 0 0 0 0 0 0 0 0 0 0 0 0 0 0 0 0 0 0 0 0 0 0
0 0 0 0 0 0 0 0 0 0 0 0 0 0 0 0 0 -0 -0 0 0 0 0 0 -0 -0 -0 0 0 0 0 0 0 0 0 0 0 0 0 0 0 0 0 0 0 0 0 0 0 0 0 0 0 0
Wind_Speed_500mb
55 50 52 53 56 56 53 43 48 47 54 55 56 54 58 58 56 60 72 68 60 63 81 83 68 46 67 61 28 55 38 25 4 11 3 3 5 10 4 5 10 13 12 7 5 3 14 14 9 9 10 6 15 22
52 58 56 54 54 53 41 45 44 53 55 58 57 59 63 59 61 59 76 71 73 66 80 93 94 94 82 63 53 29 21 32 14 10 2 3 5 3 4 5 3 3 10 8 13 10 8 32 7 16 13 9 15 25
65 55 58 56 54 41 42 42 49 52 54 59 60 65 65 63 63 62 75 78 73 54 52 35 52 84 68 49 51 34 32 22 22 35 6 7 8 8 7 8 3 7 6 5 3 5 10 25 45 31 25 21 15 23
63 62 56 52 38 38 41 44 47 53 56 60 63 65 68 67 68 67 75 76 63 42 25 68 55 54 74 76 59 60 69 58 53 35 11 7 5 14 6 2 6 7 11 10 8 10 13 16 18 26 26 24 20 26
66 59 53 38 33 39 41 45 51 54 58 63 68 69 72 70 70 74 77 79 70 44 24 49 66 63 42 45 50 48 63 70 42 11 7 7 4 5 2 2 6 9 13 8 9 8 8 19 22 14 19 29 31 35
57 49 34 29 35 36 40 46 52 58 60 66 72 76 73 73 70 73 46 8 5 11 13 7 24 56 46 26 31 32 24 27 33 19 5 10 9 9 5 5 11 32 38 36 18 35 27 28 18 22 25 27 34 37
46 30 25 28 32 36 43 47 55 57 65 71 78 79 81 76 69 61 27 32 44 57 10 9 9 10 22 20 13 17 17 17 16 15 7 6 8 17 4 6 7 19 28 35 35 32 24 36 26 24 29 27 32 35
28 25 25 28 32 36 42 46 50 60 66 71 76 81 86 70 43 18 15 9 20 31 15 6 8 11 9 8 10 15 11 5 10 4 4 2 5 1 5 9 10 13 19 21 25 37 48 48 44 34 32 33 41 45
27 23 24 29 29 35 40 43 53 65 63 66 75 74 33 7 5 16 70 78 54 39 7 3 4 7 8 5 8 8 9 4 9 3 4 3 2 7 6 7 19 17 20 32 32 30 28 32 30 26 35 43 48 49
22 20 25 29 28 33 34 42 54 55 64 73 54 25 12 8 72 60 3 5 11 23 19 5 5 6 7 5 4 3 6 2 3 4 12 5 5 13 18 22 20 25 30 32 32 30 32 34 33 31 35 43 49 49
25 21 27 21 29 27 34 39 51 53 65 44 27 13 50 74 19 9 8 4 3 3 6 7 5 5 6 3 4 6 2 2 3 6 5 5 6 6 22 27 28 31 34 30 28 33 39 36 25 24 33 39 44 44
24 27 27 28 31 29 36 37 46 49 49 58 50 65 39 11 6 7 4 7 3 4 9 3 11 9 9 5 1 5 2 5 5 6 6 6 7 10 30 36 38 40 38 30 23 22 20 23 34 27 27 31 36 33
26 25 26 29 33 33 39 37 38 43 54 52 12 8 7 6 9 6 9 8 8 16 12 16 7 9 7 3 3 4 6 4 3 6 6 7 9 22 35 42 43 38 36 27 16 12 14 9 11 21 21 22 25 30
28 26 31 31 33 37 41 38 29 40 41 11 9 12 3 6 2 1 2 4 12 19 37 30 13 3 6 4 1 4 4 4 6 5 7 5 17 31 36 39 44 45 38 24 10 9 15 12 8 5 10 17 21 24
29 32 32 32 37 38 32 24 27 35 10 7 4 7 6 7 11 11 15 16 18 25 28 16 11 6 4 2 3 4 8 6 9 7 5 11 23 32 37 40 41 41 32 16 2 5 14 14 11 9 16 20 22 20
32 35 39 37 28 23 26 25 28 26 8 12 13 7 11 1 8 18 19 16 20 28 31 11 5 2 6 4 3 9 8 8 6 5 6 18 26 32 36 36 36 33 25 10 6 7 10 14 18 20 23 22 19 15
33 39 34 22 22 24 20 19 18 11 10 11 13 28 35 27 26 22 22 28 24 18 4 3 5 8 2 2 4 6 6 3 5 1 10 20 31 35 33 30 27 23 19 11 8 8 11 13 15 17 14 14 8 2
36 32 27 19 20 21 22 15 11 12 14 23 7 33 29 34 29 32 28 22 12 6 8 4 10 3 6 4 4 4 8 11 4 8 15 18 26 29 29 24 21 18 14 10 7 9 14 14 13 11 7 2 4 10
30 27 25 22 20 11 3 11 16 10 30 19 28 39 36 34 42 41 36 24 19 18 14 10 5 4 2 2 3 9 16 19 17 24 18 15 27 25 23 21 18 17 16 15 16 15 14 12 9 4 2 8 13 16
30 26 24 20 17 7 9 9 13 12 8 9 19 21 18 19 24 25 24 17 11 8 7 4 5 2 3 5 9 15 19 20 20 18 8 13 18 13 14 16 15 14 14 13 11 10 7 3 3 7 12 14 13 10
28 31 27 23 22 18 12 9 12 10 10 11 12 10 11 14 16 9 7 7 7 3 2 1 4 3 9 13 14 16 15 13 13 13 14 12 6 9 12 13 13 12 9 7 5 5 8 10 12 13 11 8 7 8
22 23 30 29 18 17 12 15 10 6 8 13 11 9 11 5 5 4 3 4 4 1 3 5 9 13 10 9 9 12 11 8 9 7 8 10 7 7 7 9 9 7 8 9 11 12 12 12 10 8 8 10 10 9
19 35 22 15 10 16 7 10 8 6 1 6 8 5 5 3 4 3 6 3 3 3 9 7 10 8 7 3 6 9 8 5 3 3 5 7 8 7 10 12 13 15 15 15 14 12 9 6 8 10 12 11 11 10
27 17 11 18 15 7 7 8 7 5 6 4 3 6 4 2 2 4 2 2 4 5 9 6 6 5 7 5 6 5 3 0 3 3 1 3 7 9 12 13 14 15 14 12 8 5 8 11 14 15 14 12 15 17
11 8 8 3 9 6 3 3 3 3 7 6 4 5 2 4 1 0 4 3 3 4 9 6 3 0 4 4 4 4 4 4 3 3 3 6 13 17 16 14 13 11 8 5 9 12 15 17 17 16 18 19 21 24
5 9 8 14 5 9 10 6 9 10 6 4 6 4 3 3 1 6 3 3 4 4 8 7 3 1 2 2 1 2 6 7 7 6 5 11 15 15 16 11 6 4 7 10 15 18 19 18 18 19 21 23 22 21
9 11 11 11 8 7 2 5 4 3 4 6 3 4 2 3 6 3 3 2 5 7 8 6 5 4 3 1 4 6 9 8 7 9 10 11 11 12 9 5 3 7 13 18 21 21 21 21 20 21 23 25 24 22
6 15 11 18 7 4 5 2 4 7 3 1 1 1 3 6 4 3 2 6 7 5 3 2 1 1 2 3 5 7 8 9 6 6 5 4 5 6 5 5 9 16 22 24 25 23 22 21 21 21 22 22 23 24
6 18 14 6 6 5 3 4 4 3 2 1 2 2 3 1 4 4 3 3 3 3 2 3 6 7 6 4 6 8 10 10 2 0 2 4 6 9 13 18 23 26 28 28 26 25 23 22 22 21 21 22 26 27
7 12 10 5 6 3 2 2 3 3 4 5 6 5 5 5 8 10 9 8 6 5 7 10 9 4 5 7 5 3 5 6 9 10 11 12 14 18 22 25 28 29 29 27 24 23 24 22 22 22 23 25 25 22
13 7 9 7 4 3 9 12 12 10 6 6 7 5 6 6 7 17 15 9 9 11 10 5 5 7 9 7 5 6 10 14 16 17 18 19 22 24 27 29 30 30 28 24 23 21 21 23 23 25 25 23 23 22
6 5 10 6 4 14 11 3 3 3 3 3 3 3 3 2 3 4 14 14 12 9 6 7 6 5 7 9 12 16 19 20 21 22 24 25 27 29 30 31 31 28 26 24 22 23 24 25 27 26 25 24 23 21
8 8 10 10 8 6 10 8 4 4 3 3 3 3 3 2 4 4 10 16 11 10 9 7 9 12 16 19 21 23 23 25 26 27 28 29 31 31 31 30 28 27 26 25 27 26 26 26 26 26 24 23 22 21
Wind_Direction_500mb
269 278 289 285 292 300 306 307 308 308 311 312 310 311 310 310 309 310 306 303 299 287 289 282 275 280 286 284 287 292 303 301 286 257 340 262 188 211 171 168 191 171 156 188 92 162 277 164 106 165 214 164 187 192
263 277 286 289 295 302 303 310 307 310 312 311 311 312 311 309 310 310 300 307 305 279 276 291 293 289 286 289 273 263 257 267 255 262 294 276 245 151 216 222 141 292 187 177 179 212 251 196 225 231 253 229 200 197
263 271 280 287 296 300 305 303 307 311 310 312 310 311 309 310 309 308 304 301 304 289 297 295 284 301 296 281 274 262 261 238 246 234 212 206 222 156 193 235 208 251 155 212 87 253 227 237 241 253 254 244 226 197
258 273 278 290 294 297 300 306 307 310 309 309 309 310 309 309 309 308 302 302 296 283 280 287 302 293 299 294 275 257 264 258 260 263 256 227 204 199 204 174 207 210 146 210 259 287 298 296 263 263 248 225 206 192
265 273 285 289 289 297 302 305 309 310 311 310 312 311 312 309 310 307 307 302 290 258 287 291 297 304 294 282 284 272 255 252 245 236 209 208 190 152 135 146 222 190 205 181 233 218 228 267 307 292 234 220 208 197
265 276 278 278 285 299 304 308 308 311 313 315 311 312 310 309 309 314 318 354 145 219 275 290 297 295 297 297 293 291 268 245 214 204 179 205 202 168 172 205 252 235 239 247 260 278 270 281 288 283 252 232 214 207
266 262 263 279 289 298 305 309 312 315 317 314 314 312 308 304 300 289 259 274 291 294 276 305 303 276 306 319 296 304 316 221 190 170 187 171 175 184 156 214 244 228 253 260 274 274 276 267 268 298 268 242 220 217
245 246 263 276 288 300 307 313 319 320 319 317 315 312 310 305 293 267 174 132 321 296 238 259 267 325 346 319 320 338 330 359 35 61 79 63 142 35 264 248 305 321 312 296 295 274 267 274 282 270 249 226 214 212
232 250 264 277 294 301 313 323 325 322 320 318 320 320 324 31 35 307 292 284 273 236 247 257 167 280 334 332 310 317 337 20 352 59 47 3 32 225 265 309 332 339 322 301 294 283 278 274 274 260 242 224 221 216
240 246 266 281 293 300 314 320 326 328 325 334 334 334 298 305 311 314 283 126 146 181 220 229 250 281 311 329 295 352 13 19 19 353 333 56 272 292 30 22 357 330 319 312 302 288 273 260 255 250 243 237 236 228
238 255 270 287 297 303 311 318 330 329 332 340 324 267 303 311 325 325 312 13 14 169 230 287 271 287 312 296 276 16 220 344 46 275 102 331 300 258 353 350 344 334 331 324 302 291 273 257 256 267 255 246 238 234
249 254 265 285 291 298 305 320 333 333 332 319 295 288 299 313 309 30 309 322 351 352 331 321 306 299 302 301 326 2 115 34 251 329 65 319 254 351 345 345 349 343 340 335 321 330 318 270 236 253 262 252 238 230
251 264 274 283 286 292 299 314 327 321 328 333 326 289 335 326 19 18 349 332 348 344 353 332 317 308 301 304 46 51 57 241 320 40 229 232 303 348 346 345 347 346 337 333 329 337 342 338 269 257 251 215 210 210
258 263 267 277 286 292 303 306 321 320 336 321 340 316 145 288 249 111 217 244 296 297 307 316 276 273 305 13 6 83 249 54 33 15 242 262 347 341 347 348 343 345 343 339 328 2 359 348 332 251 201 187 191 191
260 270 275 279 286 295 307 301 298 323 319 271 277 255 254 298 290 289 293 293 323 308 317 299 276 244 290 58 56 103 22 287 201 233 236 346 345 347 350 348 346 345 346 341 308 43 27 30 56 117 135 144 152 164
265 273 271 278 292 298 302 292 299 316 233 219 229 266 249 345 309 315 305 294 320 321 314 253 264 328 263 153 121 220 130 229 265 233 349 349 353 355 354 351 352 354 0 25 109 110 80 92 109 120 125 132 142 150
264 268 279 284 300 302 275 281 296 227 226 219 245 242 254 268 269 280 297 307 314 318 263 265 242 238 28 288 275 194 207 293 325 65 8 360 359 356 357 356 360 10 24 50 89 113 128 129 126 123 132 127 125 146
260 272 277 278 280 273 277 240 221 235 229 238 226 270 261 265 263 279 289 290 311 290 284 289 311 242 225 221 281 324 348 346 358 351 345 346 356 357 358 2 8 16 28 51 79 116 130 130 134 135 131 116 301 300
262 268 270 258 249 230 233 220 214 251 231 242 248 258 264 273 275 276 275 283 278 268 271 289 260 227 235 10 330 338 342 348 323 318 314 323 346 354 11 20 33 45 66 80 91 106 119 125 131 131 294 311 325 327
258 267 259 254 247 232 220 228 215 252 259 257 252 256 256 257 264 271 282 279 232 205 206 226 217 176 289 320 329 314 312 320 332 346 319 314 338 5 33 46 57 64 73 84 93 101 106 88 352 338 335 335 337 343
256 256 244 233 232 216 229 216 225 244 263 254 273 268 260 252 259 242 200 222 182 106 206 193 167 264 289 285 297 325 320 325 335 335 327 344 11 42 52 55 63 57 55 60 48 16 3 349 345 347 351 5 37 46
242 235 222 217 204 199 234 222 234 249 258 271 276 245 261 267 234 169 293 95 92 129 265 270 268 293 282 272 289 320 327 328 345 356 15 34 58 66 69 65 54 32 13 2 357 354 351 351 358 22 55 63 62 52
227 207 177 172 174 198 228 198 221 228 196 279 309 274 255 227 169 229 75 81 141 4 340 308 300 275 232 245 326 331 326 339 359 42 74 79 73 61 47 24 9 1 357 351 347 348 359 30 78 81 81 73 62 60
190 156 165 182 196 215 178 187 215 246 270 289 233 276 273 224 285 78 187 191 192 326 346 335 340 197 208 252 305 303 301 182 164 178 123 48 20 358 351 348 345 340 340 342 358 45 92 102 98 91 81 77 87 91
137 187 178 210 174 106 111 322 280 93 242 229 229 285 271 320 145 119 213 206 269 301 345 349 338 62 211 236 257 263 266 271 245 201 94 46 11 350 337 332 331 342 2 59 89 102 106 103 99 95 96 99 101 101
189 193 162 192 186 150 189 181 199 209 203 255 234 302 334 87 83 242 227 292 295 293 336 346 346 234 202 7 349 279 297 269 253 246 271 326 329 326 330 338 360 26 102 110 114 115 114 111 108 109 107 103 98 94
186 232 183 179 170 160 204 237 239 136 217 216 265 354 65 221 248 252 288 296 332 324 329 322 308 288 257 286 39 32 11 341 287 265 282 293 314 332 336 351 52 98 119 124 127 124 119 117 117 114 112 106 97 88
147 161 160 166 136 153 142 126 175 202 198 164 131 192 204 194 237 304 290 324 333 340 348 320 292 253 112 71 37 6 349 336 270 245 237 285 339 2 34 75 115 129 134 134 131 127 123 119 116 111 105 100 97 96
114 139 135 86 98 81 106 183 193 179 208 152 113 139 186 160 4 23 20 11 44 80 73 29 42 47 33 344 322 321 336 347 342 223 179 141 102 83 104 119 129 132 132 131 130 125 122 120 111 103 103 104 104 100
136 142 100 85 106 177 169 168 160 148 143 142 125 118 102 94 66 65 61 63 64 68 71 76 75 51 357 345 336 359 29 73 117 125 126 118 112 116 122 127 130 132 132 132 127 125 122 114 107 109 112 110 102 97
125 111 87 79 105 135 136 124 117 113 106 96 112 122 133 139 88 56 49 45 47 52 55 39 330 350 10 25 77 101 94 108 112 113 113 114 118 123 127 128 128 128 126 123 123 122 115 115 118 114 110 109 105 98
114 107 127 115 136 152 144 134 143 121 127 118 94 111 119 109 108 73 23 30 35 28 355 347 12 42 64 82 102 115 115 116 114 115 116 118 120 123 124 125 127 127 123 121 120 119 122 120 114 113 116 109 101 92
117 105 93 109 120 172 183 168 177 142 107 100 82 78 72 96 101 36 40 28 15 1 15 63 93 103 109 110 110 109 111 112 114 118 120 121 122 124 126 127 123 121 123 127 123 119 117 116 117 115 109 101 95 90
Wind_Speed_850mb
55 50 52 53 56 56 53 43 48 47 54 55 56 54 58 58 56 60 72 68 60 63 81 83 68 46 67 61 28 55 38 25 4 11 3 3 5 10 4 5 10 13 12 7 5 3 14 14 9 9 10 6 15 22
52 58 56 54 54 53 41 45 44 53 55 58 57 59 63 59 61 59 76 71 73 66 80 93 94 94 82 63 53 29 21 32 14 10 2 3 5 3 4 5 3 3 10 8 13 10 8 32 7 16 13 9 15 25
65 55 58 56 54 41 42 42 49 52 54 59 60 65 65 63 63 62 75 78 73 54 52 35 52 84 68 49 51 34 32 22 22 35 6 7 8 8 7 8 3 7 6 5 3 5 10 25 45 31 25 21 15 23
63 62 56 52 38 38 41 44 47 53 56 60 63 65 68 67 68 67 75 76 63 42 25 68 55 54 74 76 59 60 69 58 53 35 11 7 5 14 6 2 6 7 11 10 8 10 13 16 18 26 26 24 20 26
66 59 53 38 33 39 41 45 51 54 58 63 68 69 72 70 70 74 77 79 70 44 24 49 66 63 42 45 50 48 63 70 42 11 7 7 4 5 2 2 6 9 13 8 9 8 8 19 22 14 19 29 31 35
57 49 34 29 35 36 40 46 52 58 60 66 72 76 73 73 70 73 46 8 5 11 13 7 24 56 46 26 31 32 24 27 33 19 5 10 9 9 5 5 11 32 38 36 18 35 27 28 18 22 25 27 34 37
46 30 25 28 32 36 43 47 55 57 65 71 78 79 81 76 69 61 27 32 44 57 10 9 9 10 22 20 13 17 17 17 16 15 7 6 8 17 4 6 7 19 28 35 35 32 24 36 26 24 29 27 32 35
28 25 25 28 32 36 42 46 50 60 66 71 76 81 86 70 43 18 15 9 20 31 15 6 8 11 9 8 10 15 11 5 10 4 4 2 5 1 5 9 10 13 19 21 25 37 48 48 44 34 32 33 41 45
27 23 24 29 29 35 40 43 53 65 63 66 75 74 33 7 5 16 70 78 54 39 7 3 4 7 8 5 8 8 9 4 9 3 4 3 2 7 6 7 19 17 20 32 32 30 28 32 30 26 35 43 48 49
22 20 25 29 28 33 34 42 54 55 64 73 54 25 12 8 72 60 3 5 11 23 19 5 5 6 7 5 4 3 6 2 3 4 12 5 5 13 18 22 20 25 30 32 32 30 32 34 33 31 35 43 49 49
25 21 27 21 29 27 34 39 51 53 65 44 27 13 50 74 19 9 8 4 3 3 6 7 5 5 6 3 4 6 2 2 3 6 5 5 6 6 22 27 28 31 34 30 28 33 39 36 25 24 33 39 44 44
24 27 27 28 31 29 36 37 46 49 49 58 50 65 39 11 6 7 4 7 3 4 9 3 11 9 9 5 1 5 2 5 5 6 6 6 7 10 30 36 38 40 38 30 23 22 20 23 34 27 27 31 36 33
26 25 26 29 33 33 39 37 38 43 54 52 12 8 7 6 9 6 9 8 8 16 12 16 7 9 7 3 3 4 6 4 3 6 6 7 9 22 35 42 43 38 36 27 16 12 14 9 11 21 21 22 25 30
28 26 31 31 33 37 41 38 29 40 41 11 9 12 3 6 2 1 2 4 12 19 37 30 13 3 6 4 1 4 4 4 6 5 7 5 17 31 36 39 44 45 38 24 10 9 15 12 8 5 10 17 21 24
29 32 32 32 37 38 32 24 27 35 10 7 4 7 6 7 11 11 15 16 18 25 28 16 11 6 4 2 3 4 8 6 9 7 5 11 23 32 37 40 41 41 32 16 2 5 14 14 11 9 16 20 22 20
32 35 39 37 28 23 26 25 28 26 8 12 13 7 11 1 8 18 19 16 20 28 31 11 5 2 6 4 3 9 8 8 6 5 6 18 26 32 36 36 36 33 25 10 6 7 10 14 18 20 23 22 19 15
33 39 34 22 22 24 20 19 18 11 10 11 13 28 35 27 26 22 22 28 24 18 4 3 5 8 2 2 4 6 6 3 5 1 10 20 31 35 33 30 27 23 19 11 8 8 11 13 15 17 14 14 8 2
36 32 27 19 20 21 22 15 11 12 14 23 7 33 29 34 29 32 28 22 12 6 8 4 10 3 6 4 4 4 8 11 4 8 15 18 26 29 29 24 21 18 14 10 7 9 14 14 13 11 7 2 4 10
30 27 25 22 20 11 3 11 16 10 30 19 28 39 36 34 42 41 36 24 19 18 14 10 5 4 2 2 3 9 16 19 17 24 18 15 27 25 23 21 18 17 16 15 16 15 14 12 9 4 2 8 13 16
30 26 24 20 17 7 9 9 13 12 8 9 19 21 18 19 24 25 24 17 11 8 7 4 5 2 3 5 9 15 19 20 20 18 8 13 18 13 14 16 15 14 14 13 11 10 7 3 3 7 12 14 13 10
28 31 27 23 22 18 12 9 12 10 10 11 12 10 11 14 16 9 7 7 7 3 2 1 4 3 9 13 14 16 15 13 13 13 14 12 6 9 12 13 13 12 9 7 5 5 8 10 12 13 11 8 7 8
22 23 30 29 18 17 12 15 10 6 8 13 11 9 11 5 5 4 3 4 4 1 3 5 9 13 10 9 9 12 11 8 9 7 8 10 7 7 7 9 9 7 8 9 11 12 12 12 10 8 8 10 10 9
19 35 22 15 10 16 7 10 8 6 1 6 8 5 5 3 4 3 6 3 3 3 9 7 10 8 7 3 6 9 8 5 3 3 5 7 8 7 10 12 13 15 15 15 14 12 9 6 8 10 12 11 11 10
27 17 11 18 15 7 7 8 7 5 6 4 3 6 4 2 2 4 2 2 4 5 9 6 6 5 7 5 6 5 3 0 3 3 1 3 7 9 12 13 14 15 14 12 8 5 8 11 14 15 14 12 15 17
11 8 8 3 9 6 3 3 3 3 7 6 4 5 2 4 1 0 4 3 3 4 9 6 3 0 4 4 4 4 4 4 3 3 3 6 13 17 16 14 13 11 8 5 9 12 15 17 17 16 18 19 21 24
5 9 8 14 5 9 10 6 9 10 6 4 6 4 3 3 1 6 3 3 4 4 8 7 3 1 2 2 1 2 6 7 7 6 5 11 15 15 16 11 6 4 7 10 15 18 19 18 18 19 21 23 22 21
9 11 11 11 8 7 2 5 4 3 4 6 3 4 2 3 6 3 3 2 5 7 8 6 5 4 3 1 4 6 9 8 7 9 10 11 11 12 9 5 3 7 13 18 21 21 21 21 20 21 23 25 24 22
6 15 11 18 7 4 5 2 4 7 3 1 1 1 3 6 4 3 2 6 7 5 3 2 1 1 2 3 5 7 8 9 6 6 5 4 5 6 5 5 9 16 22 24 25 23 22 21 21 21 22 22 23 24
6 18 14 6 6 5 3 4 4 3 2 1 2 2 3 1 4 4 3 3 3 3 2 3 6 7 6 4 6 8 10 10 2 0 2 4 6 9 13 18 23 26 28 28 26 25 23 22 22 21 21 22 26 27
7 12 10 5 6 3 2 2 3 3 4 5 6 5 5 5 8 10 9 8 6 5 7 10 9 4 5 7 5 3 5 6 9 10 11 12 14 18 22 25 28 29 29 27 24 23 24 22 22 22 23 25 25 22
13 7 9 7 4 3 9 12 12 10 6 6 7 5 6 6 7 17 15 9 9 11 10 5 5 7 9 7 5 6 10 14 16 17 18 19 22 24 27 29 30 30 28 24 23 21 21 23 23 25 25 23 23 22
6 5 10 6 4 14 11 3 3 3 3 3 3 3 3 2 3 4 14 14 12 9 6 7 6 5 7 9 12 16 19 20 21 22 24 25 27 29 30 31 31 28 26 24 22 23 24 25 27 26 25 24 23 21
8 8 10 10 8 6 10 8 4 4 3 3 3 3 3 2 4 4 10 16 11 10 9 7 9 12 16 19 21 23 23 25 26 27 28 29 31 31 31 30 28 27 26 25 27 26 26 26 26 26 24 23 22 21
Wind_Direction_850mb
269 278 289 285 292 300 306 307 308 308 311 312 310 311 310 310 309 310 306 303 299 287 289 282 275 280 286 284 287 292 303 301 286 257 340 262 188 211 171 168 191 171 156 188 92 162 277 164 106 165 214 164 187 192
263 277 286 289 295 302 303 310 307 310 312 311 311 312 311 309 310 310 300 307 305 279 276 291 293 289 286 289 273 263 257 267 255 262 294 276 245 151 216 222 141 292 187 177 179 212 251 196 225 231 253 229 200 197
263 271 280 287 296 300 305 303 307 311 310 312 310 311 309 310 309 308 304 301 304 289 297 295 284 301 296 281 274 262 261 238 246 234 212 206 222 156 193 235 208 251 155 212 87 253 227 237 241 253 254 244 226 197
258 273 278 290 294 297 300 306 307 310 309 309 309 310 309 309 309 308 302 302 296 283 280 287 302 293 299 294 275 257 264 258 260 263 256 227 204 199 204 174 207 210 146 210 259 287 298 296 263 263 248 225 206 192
265 273 285 289 289 297 302 305 309 310 311 310 312 311 312 309 310 307 307 302 290 258 287 291 297 304 294 282 284 272 255 252 245 236 209 208 190 152 135 146 222 190 205 181 233 218 228 267 307 292 234 220 208 197
265 276 278 278 285 299 304 308 308 311 313 315 311 312 310 309 309 314 318 354 145 219 275 290 297 295 297 297 293 291 268 245 214 204 179 205 202 168 172 205 252 235 239 247 260 278 270 281 288 283 252 232 214 207
266 262 263 279 289 298 305 309 312 315 317 314 314 312 308 304 300 289 259 274 291 294 276 305 303 276 306 319 296 304 316 221 190 170 187 171 175 184 156 214 244 228 253 260 274 274 276 267 268 298 268 242 220 217
245 246 263 276 288 300 307 313 319 320 319 317 315 312 310 305 293 267 174 132 321 296 238 259 267 325 346 319 320 338 330 359 35 61 79 63 142 35 264 248 305 321 312 296 295 274 267 274 282 270 249 226 214 212
232 250 264 277 294 301 313 323 325 322 320 318 320 320 324 31 35 307 292 284 273 236 247 257 167 280 334 332 310 317 337 20 352 59 47 3 32 225 265 309 332 339 322 301 294 283 278 274 274 260 242 224 221 216
240 246 266 281 293 300 314 320 326 328 325 334 334 334 298 305 311 314 283 126 146 181 220 229 250 281 311 329 295 352 13 19 19 353 333 56 272 292 30 22 357 330 319 312 302 288 273 260 255 250 243 237 236 228
238 255 270 287 297 303 311 318 330 329 332 340 324 267 303 311 325 325 312 13 14 169 230 287 271 287 312 296 276 16 220 344 46 275 102 331 300 258 353 350 344 334 331 324 302 291 273 257 256 267 255 246 238 234
249 254 265 285 291 298 305 320 333 333 332 319 295 288 299 313 309 30 309 322 351 352 331 321 306 299 302 301 326 2 115 34 251 329 65 319 254 351 345 345 349 343 340 335 321 330 318 270 236 253 262 252 238 230
251 264 274 283 286 292 299 314 327 321 328 333 326 289 335 326 19 18 349 332 348 344 353 332 317 308 301 304 46 51 57 241 320 40 229 232 303 348 346 345 347 346 337 333 329 337 342 338 269 257 251 215 210 210
258 263 267 277 286 292 303 306 321 320 336 321 340 316 145 288 249 111 217 244 296 297 307 316 276 273 305 13 6 83 249 54 33 15 242 262 347 341 347 348 343 345 343 339 328 2 359 348 332 251 201 187 191 191
260 270 275 279 286 295 307 301 298 323 319 271 277 255 254 298 290 289 293 293 323 308 317 299 276 244 290 58 56 103 22 287 201 233 236 346 345 347 350 348 346 345 346 341 308 43 27 30 56 117 135 144 152 164
265 273 271 278 292 298 302 292 299 316 233 219 229 266 249 345 309 315 305 294 320 321 314 253 264 328 263 153 121 220 130 229 265 233 349 349 353 355 354 351 352 354 0 25 109 110 80 92 109 120 125 132 142 150
264 268 279 284 300 302 275 281 296 227 226 219 245 242 254 268 269 280 297 307 314 318 263 265 242 238 28 288 275 194 207 293 325 65 8 360 359 356 357 356 360 10 24 50 89 113 128 129 126 123 132 127 125 146
260 272 277 278 280 273 277 240 221 235 229 238 226 270 261 265 263 279 289 290 311 290 284 289 311 242 225 221 281 324 348 346 358 351 345 346 356 357 358 2 8 16 28 51 79 116 130 130 134 135 131 116 301 300
262 268 270 258 249 230 233 220 214 251 231 242 248 258 264 273 275 276 275 283 278 268 271 289 260 227 235 10 330 338 342 348 323 318 314 323 346 354 11 20 33 45 66 80 91 106 119 125 131 131 294 311 325 327
258 267 259 254 247 232 220 228 215 252 259 257 252 256 256 257 264 271 282 279 232 205 206 226 217 176 289 320 329 314 312 320 332 346 319 314 338 5 33 46 57 64 73 84 93 101 106 88 352 338 335 335 337 343
256 256 244 233 232 216 229 216 225 244 263 254 273 268 260 252 259 242 200 222 182 106 206 193 167 264 289 285 297 325 320 325 335 335 327 344 11 42 52 55 63 57 55 60 48 16 3 349 345 347 351 5 37 46
242 235 222 217 204 199 234 222 234 249 258 271 276 245 261 267 234 169 293 95 92 129 265 270 268 293 282 272 289 320 327 328 345 356 15 34 58 66 69 65 54 32 13 2 357 354 351 351 358 22 55 63 62 52
227 207 177 172 174 198 228 198 221 228 196 279 309 274 255 227 169 229 75 81 141 4 340 308 300 275 232 245 326 331 326 339 359 42 74 79 73 61 47 24 9 1 357 351 347 348 359 30 78 81 81 73 62 60
190 156 165 182 196 215 178 187 215 246 270 289 233 276 273 224 285 78 187 191 192 326 346 335 340 197 208 252 305 303 301 182 164 178 123 48 20 358 351 348 345 340 340 342 358 45 92 102 98 91 81 77 87 91
137 187 178 210 174 106 111 322 280 93 242 229 229 285 271 320 145 119 213 206 269 301 345 349 338 62 211 236 257 263 266 271 245 201 94 46 11 350 337 332 331 342 2 59 89 102 106 103 99 95 96 99 101 101
189 193 162 192 186 150 189 181 199 209 203 255 234 302 334 87 83 242 227 292 295 293 336 346 346 234 202 7 349 279 297 269 253 246 271 326 329 326 330 338 360 26 102 110 114 115 114 111 108 109 107 103 98 94
186 232 183 179 170 160 204 237 239 136 217 216 265 354 65 221 248 252 288 296 332 324 329 322 308 288 257 286 39 32 11 341 287 265 282 293 314 332 336 351 52 98 119 124 127 124 119 117 117 114 112 106 97 88
147 161 160 166 136 153 142 126 175 202 198 164 131 192 204 194 237 304 290 324 333 340 348 320 292 253 112 71 37 6 349 336 270 245 237 285 339 2 34 75 115 129 134 134 131 127 123 119 116 111 105 100 97 96
114 139 135 86 98 81 106 183 193 179 208 152 113 139 186 160 4 23 20 11 44 80 73 29 42 47 33 344 322 321 336 347 342 223 179 141 102 83 104 119 129 132 132 131 130 125 122 120 111 103 103 104 104 100
136 142 100 85 106 177 169 168 160 148 143 142 125 118 102 94 66 65 61 63 64 68 71 76 75 51 357 345 336 359 29 73 117 125 126 118 112 116 122 127 130 132 132 132 127 125 122 114 107 109 112 110 102 97
125 111 87 79 105 135 136 124 117 113 106 96 112 122 133 139 88 56 49 45 47 52 55 39 330 350 10 25 77 101 94 108 112 113 113 114 118 123 127 128 128 128 126 123 123 122 115 115 118 114 110 109 105 98
114 107 127 115 136 152 144 134 143 121 127 118 94 111 119 109 108 73 23 30 35 28 355 347 12 42 64 82 102 115 115 116 114 115 116 118 120 123 124 125 127 127 123 121 120 119 122 120 114 113 116 109 101 92
117 105 93 109 120 172 183 168 177 142 107 100 82 78 72 96 101 36 40 28 15 1 15 63 93 103 109 110 110 109 111 112 114 118 120 121 122 124 126 127 123 121 123 127 123 119 117 116 117 115 109 101 95 90